GPS BIIF-11

Last updated on Sat Aug 15 2026 00:02:48 GMT+0000 (Coordinated Universal Time)

1 41019U 15062A 26225.61328787 -.00000077 00000+0 00000+0 0 9991 2 41019 56.9979 28.6025 0114215 230.8451 128.1487 2.00566909 78982
UTC large
Height (km)
Speed (km/s)
/
Latitude / Longitude
Inclination (degrees)
Orbital Period (minutes)
Azimuth
Elevation
Range (km)
Doppler Factor

Next 0 passes for location: London (51.5072 / 0.1276)

No passes found over London.
GPS BIIF-11